TimeCDT,TemperatureF,Dew PointF,Humidity,Sea Level PressureIn,VisibilityMPH,Wind Direction,Wind SpeedMPH,Gust SpeedMPH,PrecipitationIn,Events,Conditions,WindDirDegrees,DateUTC
12:15 AM,39.2,33.8,81,29.96,10.0,South,16.1,-,N/A,,Clear,190,2013-04-27 05:15:00
12:35 AM,37.4,33.8,87,29.95,10.0,SSW,17.3,-,N/A,,Clear,200,2013-04-27 05:35:00
12:55 AM,37.4,33.8,87,29.95,10.0,South,16.1,-,N/A,,Clear,190,2013-04-27 05:55:00
1:15 AM,37.4,35.6,93,29.94,10.0,SSW,16.1,-,N/A,,Clear,200,2013-04-27 06:15:00
1:35 AM,37.4,35.6,93,29.94,10.0,SSW,18.4,-,N/A,,Partly Cloudy,200,2013-04-27 06:35:00
1:55 AM,37.4,33.8,87,29.93,10.0,SSW,18.4,-,N/A,,Scattered Clouds,200,2013-04-27 06:55:00
2:15 AM,37.4,33.8,87,29.92,10.0,South,17.3,-,N/A,,Partly Cloudy,190,2013-04-27 07:15:00
2:35 AM,37.4,33.8,87,29.91,10.0,SSW,19.6,-,N/A,,Clear,200,2013-04-27 07:35:00
2:55 AM,37.4,33.8,87,29.90,10.0,SSW,20.7,-,N/A,,Clear,200,2013-04-27 07:55:00
3:15 AM,37.4,33.8,87,29.89,10.0,SSW,19.6,-,N/A,,Clear,200,2013-04-27 08:15:00
3:35 AM,37.4,33.8,87,29.88,10.0,SSW,19.6,-,N/A,,Clear,200,2013-04-27 08:35:00
3:55 AM,37.4,33.8,87,29.87,10.0,SSW,20.7,-,N/A,,Clear,200,2013-04-27 08:55:00
4:15 AM,37.4,32.0,81,29.87,10.0,SSW,19.6,-,N/A,,Clear,200,2013-04-27 09:15:00
4:35 AM,37.4,32.0,81,29.86,10.0,SSW,19.6,-,N/A,,Clear,200,2013-04-27 09:35:00
4:55 AM,37.4,32.0,81,29.86,10.0,South,19.6,-,N/A,,Scattered Clouds,190,2013-04-27 09:55:00
5:15 AM,37.4,32.0,81,29.86,10.0,SSW,20.7,-,N/A,,Partly Cloudy,200,2013-04-27 10:15:00
6:35 AM,35.6,32.0,87,29.83,10.0,SSW,17.3,-,N/A,,Clear,200,2013-04-27 11:35:00
6:55 AM,35.6,32.0,87,29.83,10.0,SSW,17.3,-,N/A,,Clear,200,2013-04-27 11:55:00
7:15 AM,35.6,32.0,87,29.83,10.0,SSW,17.3,-,N/A,,Clear,200,2013-04-27 12:15:00
7:35 AM,35.6,32.0,87,29.82,10.0,SSW,17.3,-,N/A,,Clear,200,2013-04-27 12:35:00
7:55 AM,35.6,32.0,87,29.81,10.0,South,18.4,-,N/A,,Clear,190,2013-04-27 12:55:00
8:15 AM,35.6,32.0,87,29.81,10.0,SSW,18.4,-,N/A,,Partly Cloudy,200,2013-04-27 13:15:00
8:35 AM,35.6,32.0,87,29.81,10.0,SSW,17.3,-,N/A,,Partly Cloudy,200,2013-04-27 13:35:00
8:55 AM,35.6,32.0,87,29.80,10.0,SSW,16.1,-,N/A,,Clear,200,2013-04-27 13:55:00
9:15 AM,35.6,33.8,93,29.80,10.0,SSW,16.1,-,N/A,,Clear,210,2013-04-27 14:15:00
9:35 AM,35.6,33.8,93,29.79,10.0,SSW,16.1,-,N/A,,Clear,210,2013-04-27 14:35:00
9:55 AM,35.6,33.8,93,29.79,10.0,SSW,16.1,-,N/A,,Clear,210,2013-04-27 14:55:00
10:15 AM,35.6,33.8,93,29.78,10.0,SSW,18.4,-,N/A,,Clear,210,2013-04-27 15:15:00
10:35 AM,37.4,33.8,87,29.77,10.0,SSW,18.4,-,N/A,,Clear,210,2013-04-27 15:35:00
10:55 AM,37.4,33.8,87,29.77,10.0,SSW,18.4,-,N/A,,Scattered Clouds,210,2013-04-27 15:55:00
11:15 AM,37.4,33.8,87,29.76,10.0,SSW,17.3,-,N/A,,Scattered Clouds,210,2013-04-27 16:15:00
11:35 AM,37.4,35.6,93,29.76,10.0,SSW,17.3,-,N/A,,Scattered Clouds,210,2013-04-27 16:35:00
11:55 AM,37.4,35.6,93,29.76,10.0,SSW,16.1,-,N/A,,Clear,210,2013-04-27 16:55:00
12:15 PM,37.4,35.6,93,29.76,10.0,SSW,15.0,-,N/A,,Clear,210,2013-04-27 17:15:00
12:35 PM,37.4,35.6,93,29.77,10.0,SSW,15.0,-,N/A,,Clear,210,2013-04-27 17:35:00
12:55 PM,37.4,35.6,93,29.76,10.0,SSW,13.8,-,N/A,,Clear,210,2013-04-27 17:55:00
1:15 PM,37.4,35.6,93,29.76,10.0,SSW,13.8,-,N/A,,Clear,210,2013-04-27 18:15:00
1:35 PM,37.4,35.6,93,29.76,10.0,SSW,10.4,-,N/A,,Clear,200,2013-04-27 18:35:00
1:55 PM,37.4,35.6,93,29.75,10.0,SSW,12.7,-,N/A,,Clear,200,2013-04-27 18:55:00
2:15 PM,39.2,35.6,87,29.74,10.0,SSW,15.0,-,N/A,,Clear,210,2013-04-27 19:15:00
2:35 PM,39.2,35.6,87,29.74,10.0,SW,16.1,-,N/A,,Clear,220,2013-04-27 19:35:00
2:55 PM,39.2,35.6,87,29.74,10.0,SW,13.8,-,N/A,,Clear,220,2013-04-27 19:55:00
3:15 PM,39.2,35.6,87,29.74,10.0,SW,13.8,-,N/A,,Clear,220,2013-04-27 20:15:00
3:35 PM,39.2,35.6,87,29.73,10.0,SW,16.1,-,N/A,,Clear,220,2013-04-27 20:35:00
3:55 PM,39.2,35.6,87,29.73,10.0,SSW,13.8,-,N/A,,Clear,210,2013-04-27 20:55:00
4:15 PM,39.2,35.6,87,29.72,10.0,SW,17.3,-,N/A,,Clear,220,2013-04-27 21:15:00
4:35 PM,39.2,35.6,87,29.72,10.0,SW,16.1,-,N/A,,Clear,230,2013-04-27 21:35:00
4:55 PM,39.2,35.6,87,29.71,10.0,WSW,15.0,-,N/A,,Clear,240,2013-04-27 21:55:00
5:15 PM,39.2,35.6,87,29.71,10.0,WSW,13.8,-,N/A,,Clear,240,2013-04-27 22:15:00
5:35 PM,39.2,35.6,87,29.71,10.0,WSW,17.3,-,N/A,,Clear,240,2013-04-27 22:35:00
5:55 PM,41.0,35.6,81,29.71,10.0,SW,17.3,-,N/A,,Clear,230,2013-04-27 22:55:00
6:15 PM,39.2,35.6,87,29.71,10.0,SW,15.0,-,N/A,,Clear,230,2013-04-27 23:15:00
6:35 PM,39.2,35.6,87,29.70,10.0,SW,13.8,-,N/A,,Clear,220,2013-04-27 23:35:00
6:55 PM,39.2,35.6,87,29.70,10.0,SW,12.7,-,N/A,,Clear,220,2013-04-27 23:55:00
7:15 PM,41.0,37.4,87,29.70,10.0,SW,15.0,-,N/A,,Clear,220,2013-04-28 00:15:00
7:35 PM,39.2,37.4,93,29.69,10.0,SW,13.8,-,N/A,,Clear,220,2013-04-28 00:35:00
7:55 PM,37.4,35.6,93,29.69,10.0,SSW,11.5,-,N/A,,Clear,210,2013-04-28 00:55:00
8:15 PM,37.4,37.4,100,29.68,10.0,SSW,15.0,-,N/A,,Clear,210,2013-04-28 01:15:00
8:35 PM,37.4,37.4,100,29.68,10.0,SSW,13.8,-,N/A,,Clear,210,2013-04-28 01:35:00
8:55 PM,37.4,35.6,93,29.68,10.0,SSW,10.4,-,N/A,,Clear,210,2013-04-28 01:55:00
9:15 PM,37.4,35.6,93,29.68,10.0,South,10.4,-,N/A,,Clear,190,2013-04-28 02:15:00
9:35 PM,37.4,35.6,93,29.67,10.0,SSW,11.5,-,N/A,,Clear,200,2013-04-28 02:35:00
9:55 PM,37.4,37.4,100,29.67,10.0,SSW,11.5,-,N/A,,Clear,200,2013-04-28 02:55:00
10:15 PM,37.4,37.4,100,29.67,10.0,South,11.5,-,N/A,,Clear,190,2013-04-28 03:15:00
10:35 PM,37.4,37.4,100,29.66,10.0,South,9.2,-,N/A,,Clear,190,2013-04-28 03:35:00
10:55 PM,37.4,37.4,100,29.66,10.0,SSW,6.9,-,N/A,,Scattered Clouds,200,2013-04-28 03:55:00
11:15 PM,39.2,37.4,93,29.66,10.0,SSW,4.6,-,N/A,,Mostly Cloudy,210,2013-04-28 04:15:00
11:35 PM,39.2,37.4,93,29.64,10.0,South,16.1,-,N/A,,Scattered Clouds,180,2013-04-28 04:35:00
11:55 PM,39.2,37.4,93,29.64,10.0,South,13.8,-,N/A,,Partly Cloudy,190,2013-04-28 04:55:00